TimeCDT,TemperatureF,Dew PointF,Humidity,Sea Level PressureIn,VisibilityMPH,Wind Direction,Wind SpeedMPH,Gust SpeedMPH,PrecipitationIn,Events,Conditions,WindDirDegrees,DateUTC
12:15 AM,56.5,54.3,92,30.20,10.0,Calm,Calm,-,N/A,,Scattered Clouds,0,2013-08-24 05:15:00
12:35 AM,55.4,53.4,93,30.21,10.0,Calm,Calm,-,N/A,,Scattered Clouds,0,2013-08-24 05:35:00
12:55 AM,55.9,55.0,97,30.21,10.0,Calm,Calm,-,N/A,,Scattered Clouds,0,2013-08-24 05:55:00
1:15 AM,55.2,54.3,97,30.21,10.0,Calm,Calm,-,N/A,,Scattered Clouds,0,2013-08-24 06:15:00
1:35 AM,55.2,53.8,95,30.21,10.0,Calm,Calm,-,N/A,,Clear,0,2013-08-24 06:35:00
1:55 AM,54.1,53.2,97,30.21,10.0,Calm,Calm,-,N/A,,Clear,0,2013-08-24 06:55:00
2:15 AM,54.3,54.0,99,30.21,10.0,Calm,Calm,-,N/A,,Clear,0,2013-08-24 07:15:00
2:35 AM,53.8,53.1,97,30.22,10.0,Calm,Calm,-,N/A,,Clear,0,2013-08-24 07:35:00
2:55 AM,53.6,52.7,97,30.22,10.0,Calm,Calm,-,N/A,,Clear,0,2013-08-24 07:55:00
3:15 AM,54.0,52.7,95,30.23,10.0,Calm,Calm,-,N/A,,Clear,0,2013-08-24 08:15:00
3:35 AM,54.0,53.1,97,30.23,10.0,Calm,Calm,-,N/A,,Clear,0,2013-08-24 08:35:00
3:55 AM,53.6,52.3,95,30.23,10.0,Calm,Calm,-,N/A,,Clear,0,2013-08-24 08:55:00
4:15 AM,53.6,52.3,95,30.24,10.0,Calm,Calm,-,N/A,,Clear,0,2013-08-24 09:15:00
4:35 AM,54.0,52.9,96,30.24,10.0,Calm,Calm,-,N/A,,Clear,0,2013-08-24 09:35:00
4:55 AM,54.9,52.7,92,30.24,10.0,Calm,Calm,-,N/A,,Clear,0,2013-08-24 09:55:00
5:15 AM,55.0,53.1,93,30.25,10.0,Calm,Calm,-,N/A,,Clear,0,2013-08-24 10:15:00
5:35 AM,53.8,53.2,98,30.26,10.0,Calm,Calm,-,N/A,,Clear,0,2013-08-24 10:35:00
5:55 AM,53.8,52.9,97,30.27,10.0,Calm,Calm,-,N/A,,Clear,0,2013-08-24 10:55:00
6:15 AM,52.7,52.0,97,30.28,10.0,Calm,Calm,-,N/A,,Clear,0,2013-08-24 11:15:00
6:35 AM,52.5,52.2,99,30.28,10.0,Calm,Calm,-,N/A,,Clear,0,2013-08-24 11:35:00
6:55 AM,55.6,55.6,100,30.29,10.0,Calm,Calm,-,N/A,,Clear,0,2013-08-24 11:55:00
7:15 AM,58.5,56.3,93,30.29,10.0,East,3.5,-,N/A,,Clear,90,2013-08-24 12:15:00
7:35 AM,59.9,57.4,91,30.30,10.0,Calm,Calm,-,N/A,,Clear,0,2013-08-24 12:35:00
7:55 AM,61.7,57.6,86,30.30,10.0,East,3.5,-,N/A,,Clear,100,2013-08-24 12:55:00
8:15 AM,63.5,57.0,79,30.30,10.0,Calm,Calm,-,N/A,,Clear,0,2013-08-24 13:15:00
8:35 AM,64.8,58.1,79,30.30,10.0,ESE,3.5,-,N/A,,Clear,110,2013-08-24 13:35:00
8:55 AM,66.6,57.6,73,30.30,10.0,SE,5.8,-,N/A,,Clear,130,2013-08-24 13:55:00
9:15 AM,68.0,57.2,68,30.31,10.0,SE,4.6,-,N/A,,Clear,140,2013-08-24 14:15:00
9:35 AM,69.8,56.7,63,30.31,10.0,SE,4.6,-,N/A,,Clear,130,2013-08-24 14:35:00
9:55 AM,71.1,57.4,62,30.30,10.0,ESE,8.1,-,N/A,,Clear,120,2013-08-24 14:55:00
10:15 AM,72.1,57.6,60,30.30,10.0,NNE,5.8,-,N/A,,Clear,30,2013-08-24 15:15:00
10:35 AM,73.4,56.5,55,30.31,10.0,SSE,6.9,-,N/A,,Clear,160,2013-08-24 15:35:00
10:55 AM,74.7,56.3,53,30.30,10.0,SSE,5.8,-,N/A,,Clear,160,2013-08-24 15:55:00
11:15 AM,75.6,55.2,49,30.30,10.0,SSE,6.9,-,N/A,,Clear,160,2013-08-24 16:15:00
11:35 AM,77.0,55.4,47,30.30,10.0,South,8.1,-,N/A,,Clear,170,2013-08-24 16:35:00
11:55 AM,77.0,54.3,45,30.30,10.0,South,5.8,-,N/A,,Clear,170,2013-08-24 16:55:00
12:15 PM,77.2,53.6,44,30.29,10.0,SSE,3.5,-,N/A,,Clear,150,2013-08-24 17:15:00
12:35 PM,77.9,53.2,42,30.29,10.0,SE,5.8,-,N/A,,Clear,140,2013-08-24 17:35:00
12:55 PM,78.1,54.1,43,30.29,10.0,SSE,4.6,-,N/A,,Clear,150,2013-08-24 17:55:00
1:15 PM,78.8,54.1,42,30.28,10.0,SE,4.6,-,N/A,,Clear,140,2013-08-24 18:15:00
1:35 PM,78.8,53.2,41,30.28,10.0,East,4.6,-,N/A,,Clear,100,2013-08-24 18:35:00
1:55 PM,79.0,54.1,42,30.28,10.0,Calm,Calm,-,N/A,,Clear,0,2013-08-24 18:55:00
2:15 PM,79.9,54.9,42,30.28,10.0,WSW,4.6,-,N/A,,Clear,240,2013-08-24 19:15:00
2:35 PM,79.3,52.3,39,30.27,10.0,Calm,Calm,-,N/A,,Clear,0,2013-08-24 19:35:00
2:55 PM,79.9,53.1,39,30.27,10.0,SE,4.6,-,N/A,,Clear,130,2013-08-24 19:55:00
3:15 PM,80.1,50.5,36,30.27,10.0,ESE,4.6,-,N/A,,Clear,110,2013-08-24 20:15:00
3:35 PM,80.6,52.2,37,30.26,10.0,SE,3.5,-,N/A,,Clear,140,2013-08-24 20:35:00
3:55 PM,79.9,52.2,38,30.26,10.0,SSE,3.5,-,N/A,,Clear,160,2013-08-24 20:55:00
4:15 PM,79.9,51.6,37,30.25,10.0,East,4.6,-,N/A,,Clear,100,2013-08-24 21:15:00
4:35 PM,80.1,52.7,39,30.24,10.0,East,5.8,-,N/A,,Clear,90,2013-08-24 21:35:00
4:55 PM,79.3,53.8,41,30.25,10.0,ESE,5.8,-,N/A,,Clear,120,2013-08-24 21:55:00
5:15 PM,79.3,53.6,41,30.25,10.0,SE,5.8,-,N/A,,Clear,130,2013-08-24 22:15:00
5:35 PM,78.8,55.0,44,30.24,10.0,ESE,5.8,-,N/A,,Clear,120,2013-08-24 22:35:00
5:55 PM,77.9,53.8,43,30.24,10.0,ESE,5.8,-,N/A,,Clear,120,2013-08-24 22:55:00
6:15 PM,77.0,56.3,49,30.24,10.0,ESE,3.5,-,N/A,,Clear,120,2013-08-24 23:15:00
6:35 PM,75.4,58.1,55,30.24,10.0,ESE,3.5,-,N/A,,Clear,120,2013-08-24 23:35:00
6:55 PM,73.0,60.6,65,30.24,10.0,ESE,4.6,-,N/A,,Clear,110,2013-08-24 23:55:00
7:15 PM,71.4,58.1,63,30.24,10.0,ESE,3.5,-,N/A,,Clear,120,2013-08-25 00:15:00
7:35 PM,68.4,61.0,77,30.24,10.0,Calm,Calm,-,N/A,,Clear,0,2013-08-25 00:35:00
7:55 PM,66.6,60.6,81,30.25,10.0,SE,3.5,-,N/A,,Clear,130,2013-08-25 00:55:00
8:15 PM,64.4,60.3,86,30.25,10.0,Calm,Calm,-,N/A,,Clear,0,2013-08-25 01:15:00
8:35 PM,63.5,59.4,86,30.25,10.0,Calm,Calm,-,N/A,,Clear,0,2013-08-25 01:35:00
8:55 PM,63.7,57.6,80,30.26,10.0,Calm,Calm,-,N/A,,Clear,0,2013-08-25 01:55:00
9:15 PM,61.7,57.7,87,30.26,10.0,Calm,Calm,-,N/A,,Clear,0,2013-08-25 02:15:00
9:35 PM,61.3,57.6,87,30.26,10.0,Calm,Calm,-,N/A,,Clear,0,2013-08-25 02:35:00
9:55 PM,60.6,57.7,90,30.26,10.0,Calm,Calm,-,N/A,,Scattered Clouds,0,2013-08-25 02:55:00
10:15 PM,59.9,56.7,89,30.26,10.0,Calm,Calm,-,N/A,,Scattered Clouds,0,2013-08-25 03:15:00
10:35 PM,60.1,56.8,89,30.26,10.0,Calm,Calm,-,N/A,,Clear,0,2013-08-25 03:35:00
10:55 PM,58.8,56.3,91,30.26,10.0,Calm,Calm,-,N/A,,Scattered Clouds,0,2013-08-25 03:55:00
11:15 PM,58.6,56.5,93,30.26,10.0,Calm,Calm,-,N/A,,Clear,0,2013-08-25 04:15:00
11:35 PM,58.1,55.8,92,30.26,10.0,Calm,Calm,-,N/A,,Clear,0,2013-08-25 04:35:00
11:55 PM,58.5,56.5,93,30.26,10.0,Calm,Calm,-,N/A,,Clear,0,2013-08-25 04:55:00